Tracking 20083 objects as of 12-Dec-2019
HD Live streaming from Space Station
objects crossing your sky now

FENGYUN 1C DEB

Track FENGYUN 1C DEB now!
10-day predictions


NORAD ID: 30599
Int'l Code: 1999-025AME
Perigee: 623.1 km
Apogee: 1,101.3 km
Inclination: 98.8 °
Period: 102.0 minutes
Semi major axis: 7233 km
RCS: 0.0171 m2 (small)
Launch date: May 10, 1999
Source: People's Republic of China (PRC)
Launch site: Taiyaun Space Center, China (TSC)

Note: This is SATELLITE DEBRIS
aabbcc
Your satellite tracking list
Your tracking list is empty




NASA's NSSDC Master Catalog

Two Line Element Set (TLE):
1 30599U 99025AME 19346.34015888  .00000226  00000-0  90663-4 0  9999
2 30599  98.8056  23.0419 0330583 133.3607 229.5618 14.11269538662151
Source of the keplerian elements: AFSPC